Location: Coffee Creek Observatory
(38.8077°N, 94.7179°W)
Time: 17:32:04
(UTC-05:00)

Amateur Radio Satellites - All Passes

Search period start: 26 June 2017 17:02
Search period end: 27 June 2017 17:02
Location: Coffee Creek Observatory, 38.8077°N, 94.7179°W

Satellite Date Start Highest point End Downlink Frequencies (MHz)
Time Altitude Azimuth
DOVE 4 26 Jun 17:02:08 17:04:14 14° 64° (ENE) 17:06:23 437.250
CUTE-I 26 Jun 17:23:19 17:25:56 14° 61° (ENE) 17:28:35 437.470
KKS-1 26 Jun 17:28:18 17:32:07 27° 96° (E) 17:35:55 437.445
XW-2F 26 Jun 17:32:56 17:34:03 11° 65° (ENE) 17:35:09 145.980 - 146.000
XW-2D 26 Jun 17:36:49 17:38:46 14° 67° (ENE) 17:40:43 145.860 - 145.880
MOZHAYETS 4 26 Jun 17:39:47 17:43:35 26° 291° (WNW) 17:47:21
XW-2B 26 Jun 17:45:17 17:47:45 17° 68° (ENE) 17:50:12 145.730 - 145.750
LilacSat-2 26 Jun 17:45:43 17:48:23 18° 68° (ENE) 17:51:03 437.200
STARS 26 Jun 17:55:05 17:58:32 22° 95° (E) 18:01:58 437.465
XW-2C 26 Jun 18:00:01 18:03:11 25° 70° (ENE) 18:06:22 145.795 - 145.815
AO-7 26 Jun 18:09:35 18:12:58 13° 271° (W) 18:16:22 .
KAITUO 1B 26 Jun 18:11:16 18:14:25 26° 71° (ENE) 18:17:36 145.475/437.950
ITUPSAT 1 26 Jun 18:12:52 18:13:25 10° 300° (WNW) 18:13:59 437.325
SRMSAT 26 Jun 18:23:11 18:24:56 11° 184° (S) 18:26:41 437.500
CUBESAT XI-V 26 Jun 18:23:15 18:27:40 48° 287° (WNW) 18:32:05 437.345
DOVE 4 26 Jun 18:37:30 18:41:29 47° 261° (W) 18:45:37 437.250
NUDT-PHONESAT 26 Jun 18:44:35 18:48:19 69° 76° (ENE) 18:52:04 437.300
HO-68 26 Jun 18:56:16 19:02:44 37° 64° (ENE) 19:09:11 435.675
CUTE 1.7 + AOD 2 26 Jun 18:59:47 19:02:53 20° 68° (ENE) 19:06:00 437.475
CUTE-I 26 Jun 18:59:58 19:05:17 76° 257° (WSW) 19:10:40 437.470
XW-2F 26 Jun 19:03:59 19:07:42 49° 260° (W) 19:11:26 145.980 - 146.000
KKS-1 26 Jun 19:04:50 19:08:34 26° 292° (WNW) 19:12:17 437.445
XW-2D 26 Jun 19:08:59 19:12:35 39° 262° (W) 19:16:13 145.860 - 145.880
XW-2A 26 Jun 19:16:51 19:19:17 18° 70° (ENE) 19:21:44 145.665 - 145.685
XW-2B 26 Jun 19:18:13 19:21:39 31° 263° (W) 19:25:07 145.730 - 145.750
LilacSat-2 26 Jun 19:19:02 19:22:26 29° 263° (W) 19:25:50 437.200
CUBEBUG 2 26 Jun 19:23:12 19:26:37 21° 67° (ENE) 19:30:05 437.445
STRAND 1 26 Jun 19:27:58 19:30:03 12° 90° (E) 19:32:07 437.568
AAUSAT CUBESAT 2 26 Jun 19:29:04 19:30:37 12° 65° (ENE) 19:32:10 437.432
STARS 26 Jun 19:30:57 19:34:52 31° 290° (WNW) 19:38:47 437.465
RS-15 26 Jun 19:31:11 19:39:02 20° 98° (E) 19:46:57 29.354- 29.394
XW-2C 26 Jun 19:34:25 19:37:19 20° 265° (W) 19:40:13 145.795 - 145.815
KAITUO 1B 26 Jun 19:45:39 19:48:23 19° 266° (W) 19:51:08 145.475/437.950
ZACube-1 26 Jun 19:48:02 19:50:01 13° 64° (ENE) 19:52:01 437.345
UWE-3 26 Jun 19:53:50 19:57:38 26° 69° (ENE) 20:01:29 435.000/436.395/437.385
SEEDS 26 Jun 20:14:15 20:18:28 89° 252° (WSW) 20:22:40 437.485
PCSat 26 Jun 20:23:41 20:27:20 18° 46° (NE) 20:30:57 145.827
CUTE 1.7 + AOD 2 26 Jun 20:34:42 20:38:30 32° 263° (W) 20:42:19 437.475
AO-85 26 Jun 20:41:17 20:45:20 59° 118° (ESE) 20:49:13 145.980
HO-68 26 Jun 20:43:37 20:50:18 41° 261° (W) 20:57:03 435.675
AO-73 26 Jun 20:45:33 20:49:53 46° 73° (ENE) 20:54:16 145.935
XW-2A 26 Jun 20:49:09 20:51:52 22° 264° (W) 20:54:37 145.665 - 145.685
BEESAT 2 26 Jun 20:58:39 21:01:10 16° 110° (ESE) 21:03:44 435.950
CUBEBUG 2 26 Jun 20:58:39 21:02:55 38° 263° (W) 21:07:18 437.445
AAUSAT CUBESAT 2 26 Jun 21:01:34 21:05:35 54° 260° (W) 21:09:38 437.432
STRAND 1 26 Jun 21:04:33 21:09:42 71° 286° (WNW) 21:14:48 437.568
Oscar 11 26 Jun 21:11:15 21:15:34 68° 75° (ENE) 21:19:53 .
NO-84 26 Jun 21:12:01 21:15:22 30° 126° (SE) 21:18:56 435.350 FM
ZACube-1 26 Jun 21:21:12 21:25:42 64° 259° (W) 21:30:17 437.345
EO-88 26 Jun 21:23:11 21:24:54 13° 67° (ENE) 21:26:37 145.990 - 145.960
FO-29 26 Jun 21:23:36 21:27:07 13° 86° (E) 21:30:35 435.910
UWE-3 26 Jun 21:29:56 21:33:56 29° 265° (W) 21:38:00 435.000/436.395/437.385
BEESAT 3 26 Jun 21:32:31 21:36:26 64° 302° (WNW) 21:40:27 437.485
YUBILEINY 26 Jun 21:32:38 21:40:04 32° 84° (E) 21:47:31 435.215
RS-15 26 Jun 21:37:29 21:49:36 84° 118° (ESE) 22:02:02 29.354- 29.394
O/OREOS (USA 219) 26 Jun 21:38:25 21:42:47 49° 107° (ESE) 21:47:10 437.305
SO-50 26 Jun 21:59:50 22:01:28 12° 40° (NE) 22:03:06 436.795
PCSat 26 Jun 22:05:52 22:11:18 73° 245° (WSW) 22:16:41 145.827
DELFI C3 26 Jun 22:15:56 22:19:51 84° 254° (WSW) 22:23:47 145.870
M-CUBED/EXP-1 PRIME 26 Jun 22:18:17 22:21:13 20° 102° (ESE) 22:24:18 437.505
AO-73 26 Jun 22:23:33 22:26:20 16° 268° (W) 22:29:07 145.935
UNISAT 6 26 Jun 22:23:34 22:26:54 20° 93° (E) 22:30:12 437.425
AO-85 26 Jun 22:23:59 22:26:02 14° 315° (NW) 22:28:03 145.980
BEESAT 2 26 Jun 22:34:50 22:38:35 39° 306° (NW) 22:42:24 435.950
PRISM 26 Jun 22:44:02 22:47:39 29° 97° (E) 22:51:16 437.425
NO-84 26 Jun 22:49:16 22:52:52 34° 325° (NW) 22:56:43 435.350 FM
EO-88 26 Jun 22:54:47 22:58:13 37° 262° (W) 23:01:40 145.990 - 145.960
FO-29 26 Jun 23:05:15 23:13:10 77° 103° (ESE) 23:20:52 435.910
LO-87 26 Jun 23:12:52 23:16:08 36° 73° (ENE) 23:19:26 145.935 - 145.965
TIGRISAT 26 Jun 23:16:35 23:21:13 69° 100° (E) 23:25:44 435.000
O/OREOS (USA 219) 26 Jun 23:19:35 23:22:28 16° 304° (WNW) 23:25:21 437.305
YUBILEINY 26 Jun 23:27:52 23:36:23 53° 283° (WNW) 23:45:00 435.215
SO-50 26 Jun 23:38:05 23:42:38 82° 59° (ENE) 23:47:12 436.795
VELOX 1 26 Jun 23:41:12 23:42:50 12° 63° (ENE) 23:44:29 145.980
ESTCUBE 1 26 Jun 23:42:54 23:47:16 54° 73° (ENE) 23:51:40 437.505/2401.250
SPROUT 26 Jun 23:50:09 23:52:43 16° 66° (ENE) 23:55:18 437.525
M-CUBED/EXP-1 PRIME 26 Jun 23:52:21 23:55:36 28° 293° (WNW) 23:59:03 437.505
RS-15 26 Jun 23:52:54 00:03:41 34° 323° (NW) 00:14:37 29.354- 29.394
UNISAT 6 26 Jun 23:59:26 00:03:44 38° 289° (WNW) 00:07:55 437.425
AIST 2D 27 Jun 00:07:45 00:10:51 29° 97° (E) 00:13:55 435.315
PRISM 27 Jun 00:19:40 00:22:44 21° 292° (WNW) 00:25:47 437.425
50 SAT 27 Jun 00:23:20 00:24:24 11° 67° (ENE) 00:25:29 437.505
POLYITAN 1 27 Jun 00:30:08 00:33:46 26° 96° (E) 00:37:21 437.675
NO-84 27 Jun 00:30:09 00:31:34 11° 345° (NNW) 00:33:01 435.350 FM
QB50P2 27 Jun 00:40:46 00:44:47 38° 98° (E) 00:48:45 145.880/145.840
LO-87 27 Jun 00:48:24 00:49:42 12° 268° (W) 00:51:01 145.935 - 145.965
FO-29 27 Jun 00:51:30 00:57:19 24° 300° (WNW) 01:03:08 435.910
TIGRISAT 27 Jun 00:55:30 00:57:16 12° 298° (WNW) 00:59:00 435.000
EO-79 27 Jun 01:04:33 01:08:49 68° 102° (ESE) 01:13:03 145.935-145.965
VELOX 1 27 Jun 01:14:24 01:18:43 62° 259° (WSW) 01:23:05 145.980
DUCHIFAT 1 27 Jun 01:16:42 01:20:58 75° 101° (E) 01:25:10 145.980
ESTCUBE 1 27 Jun 01:22:18 01:24:22 13° 269° (W) 01:26:26 437.505/2401.250
SPROUT 27 Jun 01:24:11 01:28:14 43° 261° (W) 01:32:21 437.525
NANOSAT C BR1 27 Jun 01:26:06 01:30:22 75° 283° (WNW) 01:34:34 145.865
DX 1 27 Jun 01:29:02 01:33:17 60° 74° (ENE) 01:37:33 434.975-435.025
AIST 2D 27 Jun 01:41:52 01:43:47 14° 292° (WNW) 01:45:41 435.315
UKube-1 27 Jun 01:43:01 01:47:13 57° 73° (ENE) 01:51:27 .
50 SAT 27 Jun 01:53:43 01:56:50 35° 261° (W) 01:59:58 437.505
Oscar 19 27 Jun 02:03:34 02:07:50 26° 96° (E) 02:12:06 437.125/150
POLYITAN 1 27 Jun 02:05:58 02:09:25 24° 291° (WNW) 02:12:52 437.675
BEESAT 27 Jun 02:11:28 02:13:14 12° 61° (ENE) 02:15:01 436.000
RS-15 27 Jun 02:13:37 02:21:43 19° 358° (N) 02:29:42 29.354- 29.394
QB50P2 27 Jun 02:17:25 02:20:15 17° 294° (WNW) 02:23:03 145.880/145.840
BUGSAT 1 27 Jun 02:20:33 02:24:48 70° 285° (WNW) 02:28:59 437.445
EO-79 27 Jun 02:43:04 02:43:58 11° 297° (WNW) 02:44:52 145.935-145.965
MOZHAYETS 4 27 Jun 03:03:17 03:07:00 24° 68° (ENE) 03:10:44
DX 1 27 Jun 03:08:46 03:09:49 11° 269° (W) 03:10:52 434.975-435.025
Gurwin Techsat 1B 27 Jun 03:08:53 03:14:13 71° 102° (ESE) 03:19:30 435.225
UKube-1 27 Jun 03:22:16 03:23:34 11° 269° (W) 03:24:54 .
ITUPSAT 1 27 Jun 03:36:38 03:41:27 87° 76° (ENE) 03:46:18 437.325
Oscar 19 27 Jun 03:42:34 03:47:09 34° 291° (WNW) 03:51:44 437.125/150
BEESAT 27 Jun 03:45:34 03:50:21 75° 257° (WSW) 03:55:09 436.000
NO-84 27 Jun 03:46:39 03:49:58 21° 28° (NNE) 03:53:16 435.350 FM
CUBESAT XI-V 27 Jun 03:50:05 03:52:28 14° 64° (ENE) 03:54:49 437.345
AO-7 27 Jun 04:14:03 04:21:48 40° 99° (E) 04:29:30 .
ITAMSAT 1 27 Jun 04:23:13 04:28:12 43° 99° (E) 04:33:09 435.822/435.867
KKS-1 27 Jun 04:25:23 04:28:46 22° 67° (ENE) 04:32:11 437.445
RS-15 27 Jun 04:29:31 04:39:59 31° 33° (NNE) 04:50:02 29.354- 29.394
MOZHAYETS 4 27 Jun 04:39:51 04:43:59 31° 264° (W) 04:48:07
Gurwin Techsat 1B 27 Jun 04:50:38 04:53:31 15° 299° (WNW) 04:56:24 435.225
STARS 27 Jun 04:50:57 04:53:50 17° 65° (ENE) 04:56:44 437.465
AO-85 27 Jun 05:13:08 05:16:55 34° 53° (NE) 05:20:55 145.980
NO-84 27 Jun 05:23:39 05:28:02 82° 228° (SW) 05:32:18 435.350 FM
CUBESAT XI-V 27 Jun 05:24:45 05:29:19 58° 260° (W) 05:33:53 437.345
BEESAT 3 27 Jun 05:50:25 05:54:18 45° 55° (NE) 05:58:06 437.485
KKS-1 27 Jun 06:01:10 06:05:08 32° 263° (W) 06:09:07 437.445
ITAMSAT 1 27 Jun 06:03:21 06:07:21 23° 295° (WNW) 06:11:19 435.822/435.867
AO-7 27 Jun 06:06:44 06:14:34 45° 297° (WNW) 06:22:20 .
STARS 27 Jun 06:25:42 06:29:50 41° 261° (W) 06:34:00 437.465
DOVE 4 27 Jun 06:36:15 06:41:05 49° 99° (E) 06:46:08 437.250
XW-2F 27 Jun 06:38:13 06:40:42 17° 94° (E) 06:43:08 145.980 - 146.000
RS-15 27 Jun 06:42:09 06:54:22 88° 59° (ENE) 07:05:53 29.354- 29.394
STRAND 1 27 Jun 06:42:11 06:45:27 17° 63° (ENE) 06:48:43 437.568
XW-2D 27 Jun 06:43:06 06:46:00 21° 95° (E) 06:48:54 145.860 - 145.880
XW-2B 27 Jun 06:51:55 06:55:07 26° 96° (E) 06:58:16 145.730 - 145.750
LilacSat-2 27 Jun 06:53:14 06:56:34 29° 97° (E) 06:59:52 437.200
BEESAT 2 27 Jun 06:53:15 06:57:20 77° 59° (ENE) 07:01:21 435.950
AO-85 27 Jun 06:53:53 06:57:08 22° 247° (WSW) 07:00:32 145.980
Tancredo 1 27 Jun 06:54:21 06:56:06 14° 130° (SE) 06:57:51 437.200
XW-2C 27 Jun 07:07:12 07:10:47 42° 99° (E) 07:14:20 145.795 - 145.815
KAITUO 1B 27 Jun 07:16:55 07:20:27 41° 99° (E) 07:23:56 145.475/437.950
CUTE-I 27 Jun 07:18:21 07:23:34 48° 100° (E) 07:28:43 437.470
BEESAT 3 27 Jun 07:29:21 07:31:27 14° 251° (WSW) 07:33:33 437.485
ISS 27 Jun 07:34:03 07:36:26 19° 131° (SE) 07:38:50 437.550
YUBILEINY 27 Jun 07:45:31 07:49:43 14° 60° (ENE) 07:53:52 435.215
O/OREOS (USA 219) 27 Jun 07:49:31 07:54:01 76° 69° (ENE) 07:58:28 437.305
NUDT-PHONESAT 27 Jun 07:49:55 07:53:36 68° 284° (WNW) 07:57:14 437.300
SEEDS 27 Jun 08:00:24 08:03:00 16° 93° (E) 08:05:35 437.485
XW-2F 27 Jun 08:11:36 08:14:50 28° 289° (WNW) 08:18:03 145.980 - 146.000
XW-2A 27 Jun 08:11:52 08:14:32 21° 95° (E) 08:17:13 145.665 - 145.685
HO-68 27 Jun 08:12:13 08:18:59 43° 99° (E) 08:25:41 435.675
DOVE 4 27 Jun 08:14:57 08:18:25 19° 293° (WNW) 08:21:58 437.250
XW-2D 27 Jun 08:17:07 08:20:07 23° 290° (WNW) 08:23:04 145.860 - 145.880
STRAND 1 27 Jun 08:19:05 08:24:07 57° 259° (W) 08:29:12 437.568
CUTE 1.7 + AOD 2 27 Jun 08:20:15 08:24:17 44° 99° (E) 08:28:17 437.475
XW-2B 27 Jun 08:26:27 08:29:07 19° 291° (WNW) 08:31:46 145.730 - 145.750
LilacSat-2 27 Jun 08:28:06 08:30:36 17° 292° (WNW) 08:33:05 437.200
Tancredo 1 27 Jun 08:28:28 08:31:23 45° 325° (NW) 08:34:20 437.200
XW-2C 27 Jun 08:43:01 08:44:34 12° 294° (WNW) 08:46:07 145.795 - 145.815
AAUSAT CUBESAT 2 27 Jun 08:45:11 08:48:31 24° 95° (E) 08:51:51 437.432
CUBEBUG 2 27 Jun 08:50:26 08:55:01 51° 99° (E) 08:59:27 437.445
KAITUO 1B 27 Jun 08:52:37 08:54:02 12° 294° (WNW) 08:55:26 145.475/437.950
RS-15 27 Jun 08:56:48 09:05:06 23° 261° (W) 09:13:09 29.354- 29.394
CUTE-I 27 Jun 08:59:14 09:03:14 22° 296° (WNW) 09:07:12 437.470
Oscar 11 27 Jun 09:01:20 09:03:30 14° 92° (E) 09:05:39 .
M-CUBED/EXP-1 PRIME 27 Jun 09:04:08 09:06:19 17° 64° (ENE) 09:08:30 437.505
ISS 27 Jun 09:09:36 09:12:43 41° 327° (NNW) 09:15:51 437.550
ZACube-1 27 Jun 09:11:21 09:15:07 27° 95° (E) 09:18:47 437.345
FO-29 27 Jun 09:16:45 09:21:57 29° 63° (ENE) 09:27:41 435.910
UWE-3 27 Jun 09:20:11 09:24:44 64° 101° (E) 09:29:08 435.000/436.395/437.385
UNISAT 6 27 Jun 09:21:33 09:24:21 16° 64° (ENE) 09:27:09 437.425
PRISM 27 Jun 09:32:41 09:35:27 18° 67° (ENE) 09:38:16 437.425
SEEDS 27 Jun 09:34:58 09:38:48 37° 288° (WNW) 09:42:38 437.485
YUBILEINY 27 Jun 09:39:18 09:48:10 75° 81° (E) 09:56:56 435.215
XW-2A 27 Jun 09:44:47 09:47:08 18° 291° (WNW) 09:49:28 145.665 - 145.685
DELFI C3 27 Jun 09:55:42 09:57:34 13° 92° (E) 09:59:25 145.870
CUTE 1.7 + AOD 2 27 Jun 09:57:24 09:59:43 15° 294° (WNW) 10:02:01 437.475
HO-68 27 Jun 10:00:10 10:06:32 36° 296° (WNW) 10:12:52 435.675
Tancredo 1 27 Jun 10:06:37 10:07:34 11° 344° (NNW) 10:08:31 437.200
AO-73 27 Jun 10:10:48 10:15:12 70° 284° (WNW) 10:19:28 145.935
TIGRISAT 27 Jun 10:13:24 10:17:50 50° 73° (ENE) 10:22:22 435.000
AAUSAT CUBESAT 2 27 Jun 10:20:32 10:23:53 25° 290° (WNW) 10:27:14 437.432
EO-88 27 Jun 10:25:17 10:27:52 18° 94° (E) 10:30:25 145.990 - 145.960
CUBEBUG 2 27 Jun 10:28:20 10:31:09 16° 295° (WNW) 10:33:55 437.445
Oscar 11 27 Jun 10:35:44 10:39:52 47° 287° (WNW) 10:43:59 .
M-CUBED/EXP-1 PRIME 27 Jun 10:38:03 10:40:40 21° 259° (WSW) 10:43:14 437.505
ZACube-1 27 Jun 10:47:39 10:51:17 25° 291° (WNW) 10:54:50 437.345
ISS 27 Jun 10:48:35 10:49:53 12° 345° (NNW) 10:51:13 437.550
UNISAT 6 27 Jun 10:56:06 11:00:34 51° 261° (W) 11:05:09 437.425
UWE-3 27 Jun 10:58:41 11:00:34 12° 297° (WNW) 11:02:25 435.000/436.395/437.385
FO-29 27 Jun 11:00:49 11:06:36 47° 263° (W) 11:13:11 435.910
PCSat 27 Jun 11:05:02 11:08:27 17° 104° (ESE) 11:11:53 145.827
PRISM 27 Jun 11:06:51 11:10:30 32° 262° (W) 11:14:10 437.425
POLYITAN 1 27 Jun 11:21:57 11:24:50 18° 66° (ENE) 11:27:43 437.675
DELFI C3 27 Jun 11:28:47 11:32:31 41° 286° (WNW) 11:36:14 145.870
QB50P2 27 Jun 11:32:13 11:35:42 25° 69° (ENE) 11:39:11 145.880/145.840
YUBILEINY 27 Jun 11:37:49 11:43:57 22° 280° (W) 11:50:05 435.215
ESTCUBE 1 27 Jun 11:38:30 11:40:21 12° 91° (E) 11:42:12 437.505/2401.250
TIGRISAT 27 Jun 11:52:09 11:54:47 15° 269° (W) 11:57:27 435.000
EO-79 27 Jun 11:55:22 11:59:22 41° 72° (ENE) 12:03:23 145.935-145.965
EO-88 27 Jun 11:58:30 12:01:29 24° 289° (WNW) 12:04:29 145.990 - 145.960
DUCHIFAT 1 27 Jun 12:06:50 12:10:51 44° 73° (ENE) 12:14:55 145.980
AIST 2D 27 Jun 12:13:10 12:16:36 46° 261° (W) 12:20:02 435.315
LO-87 27 Jun 12:13:53 12:17:29 56° 100° (E) 12:21:03 145.935 - 145.965
NANOSAT C BR1 27 Jun 12:16:19 12:20:30 65° 75° (ENE) 12:24:44 145.865
PCSat 27 Jun 12:45:57 12:51:17 60° 301° (WNW) 12:56:41 145.827
Gurwin Techsat 1B 27 Jun 12:52:37 12:54:45 12° 60° (ENE) 12:56:54 435.225
POLYITAN 1 27 Jun 12:56:20 13:00:18 37° 262° (W) 13:04:19 437.675
VELOX 1 27 Jun 13:05:54 13:09:38 26° 96° (E) 13:13:21 145.980
QB50P2 27 Jun 13:07:48 13:11:22 26° 264° (W) 13:14:57 145.880/145.840
BUGSAT 1 27 Jun 13:08:23 13:12:29 66° 75° (ENE) 13:16:40 437.445
SPROUT 27 Jun 13:10:59 13:14:53 33° 97° (E) 13:18:45 437.525
ESTCUBE 1 27 Jun 13:13:05 13:17:28 56° 286° (WNW) 13:21:51 437.505/2401.250
50 SAT 27 Jun 13:18:23 13:20:00 13° 93° (E) 13:21:37 437.505
Tancredo 1 27 Jun 13:18:48 13:20:55 17° 24° (NNE) 13:23:02 437.200
Oscar 19 27 Jun 13:19:01 13:23:39 34° 69° (ENE) 13:28:15 437.125/150
DX 1 27 Jun 13:20:44 13:22:05 11° 91° (E) 13:23:25 434.975-435.025
AO-7 27 Jun 13:27:57 13:28:35 10° 43° (NE) 13:29:14 .
EO-79 27 Jun 13:32:45 13:35:17 15° 267° (W) 13:37:51 145.935-145.965
UKube-1 27 Jun 13:34:33 13:34:48 10° 91° (E) 13:35:04 .
DUCHIFAT 1 27 Jun 13:44:27 13:46:43 14° 268° (W) 13:49:01 145.980
SO-50 27 Jun 13:51:13 13:55:21 34° 114° (ESE) 13:59:27 436.795
ISS 27 Jun 14:02:26 14:05:04 22° 26° (NNE) 14:07:44 437.550
Gurwin Techsat 1B 27 Jun 14:28:38 14:33:56 84° 256° (WSW) 14:39:17 435.225
JUGNU 27 Jun 14:32:32 14:34:31 12° 179° (S) 14:36:30 437.505
PCSat 27 Jun 14:34:45 14:35:50 11° 321° (NW) 14:36:55 145.827
VELOX 1 27 Jun 14:42:16 14:45:58 27° 291° (WNW) 14:49:42 145.980
SPROUT 27 Jun 14:47:24 14:50:33 20° 293° (WNW) 14:53:42 437.525
50 SAT 27 Jun 14:49:50 14:52:51 30° 288° (WNW) 14:55:52 437.505
Tancredo 1 27 Jun 14:53:44 14:56:45 63° 222° (SW) 14:59:45 437.200
DX 1 27 Jun 14:54:17 14:58:35 59° 286° (WNW) 15:02:54 434.975-435.025
Oscar 19 27 Jun 14:58:41 15:02:58 26° 264° (W) 15:07:15 437.125/150
UKube-1 27 Jun 15:06:55 15:11:12 64° 286° (WNW) 15:15:29 .
AO-7 27 Jun 15:11:27 15:19:20 50° 64° (ENE) 15:27:15 .
SO-50 27 Jun 15:32:01 15:35:50 26° 311° (NW) 15:39:39 436.795
ISS 27 Jun 15:38:32 15:41:44 49° 223° (SW) 15:44:55 437.550
ITUPSAT 1 27 Jun 15:39:01 15:42:54 24° 95° (E) 15:46:44 437.325
ITAMSAT 1 27 Jun 15:39:45 15:44:51 59° 73° (ENE) 15:49:59 435.822/435.867
BEESAT 27 Jun 15:47:16 15:51:28 30° 97° (E) 15:55:37 436.000
SRMSAT 27 Jun 16:22:16 16:23:41 11° 174° (S) 16:25:05 437.500
MOZHAYETS 4 27 Jun 16:35:25 16:39:59 65° 101° (E) 16:44:30
